TURKSAT 5A

Last updated on Sat Feb 07 2026 00:02:51 GMT+0000 (Coordinated Universal Time)

1 47306U 21001A 26037.20412822 .00000154 00000+0 00000+0 0 9991 2 47306 0.0240 88.8481 0000092 8.1056 143.7428 1.00272015 18653
UTC large
Height (km)
Speed (km/s)
/
Latitude / Longitude
Inclination (degrees)
Orbital Period (minutes)
Azimuth
Elevation
Range (km)
Doppler Factor

Next 0 passes for location: London (51.5072 / 0.1276)

Sorry there are no passes over London.